SCP
0 0 0 0 0 0 0 0 0 0 0 0 0 0 0 0 0 0 0 0 0 0 0 0 0 0 0 0 0 0 0 0 0 0 0 0 0 0 0 0 0 0 0 0
0 0 0 0 0 0 0 0 0 0 0 0 0 0 0 0 0 0 0 0 0 0 0 0 0 0 0 0 0 0 0 0 0 0 0 0 0 0 0 0 0 0 0 0
0 0 0 0 0 0 0 0 0 0 0 0 0 0 0 0 0 0 0 0 0 0 0 0 0 0 0 0 0 0 0 0 0 0 0 0 0 0 0 0 0 0 0 0
0 0 0 0 0 0 0 0 0 0 0 0 0 0 0 0 0 0 0 0 0 0 0 0 0 0 0 0 0 0 0 0 0 0 0 0 0 0 0 0 0 0 0 0
0 0 0 0 0 0 0 0 0 0 0 0 0 0 0 0 0 0 0 0 0 0 0 0 0 0 0 0 0 0 0 0 0 0 0 0 0 0 0 0 0 0 0 0
0 0 0 0 0 0 0 0 0 0 0 0 0 0 0 0 0 0 0 0 0 0 0 0 0 0 0 0 0 0 0 0 0 0 0 0 0 0 0 0 0 0 0 0
0 0 0 0 0 0 0 0 0 0 0 0 0 0 0 0 0 0 0 0 0 0 0 0 0 0 0 0 0 0 0 0 0 0 0 0 0 0 0 0 0 0 0 0
0 0 0 0 0 0 0 0 0 0 0 0 0 0 0 0 0 0 0 0 0 0 0 0 0 0 0 0 0 0 0 0 0 0 0 0 0 0 0 0 0 0 0 0
0 0 0 0 0 0 0 0 0 0 0 0 0 0 0 0 0 0 0 0 0 0 0 0 0 0 0 0 0 0 0 0 0 0 0 0 0 0 0 0 0 0 0 0
0 0 0 0 0 0 0 0 0 0 0 0 0 0 0 0 0 0 0 0 0 0 0 0 0 0 0 0 0 0 0 0 0 0 0 0 0 0 0 0 0 0 0 0
0 0 0 0 0 0 0 0 0 0 0 0 0 0 0 0 0 0 0 0 0 0 0 0 0 0 0 0 0 0 0 0 0 0 0 0 0 0 0 0 0 0 0 0
0 0 0 0 0 0 0 0 0 0 0 0 0 0 0 0 0 0 0 0 0 0 0 0 0 0 0 0 0 0 0 0 0 0 0 0 0 0 0 0 0 0 0 0
0 0 0 0 0 0 0 0 0 0 0 0 0 0 0 0 0 0 0 0 0 0 0 0 0 0 0 0 0 0 0 0 0 0 0 0 0 0 0 0 0 0 0 0
0 0 0 0 0 0 0 0 0 0 0 0 0 0 0 0 0 0 0 0 0 0 0 0 0 0 0 0 0 0 0 0 0 0 0 0 0 0 0 0 0 0 0 0
0 0 0 0 0 0 0 0 0 0 0 0 0 0 0 0 0 0 0 0 0 0 0 0 0 0 0 0 0 0 0 0 0 0 0 0 0 0 0 0 0 0 0 0
0 0 0 0 0 0 0 0 0 0 0 0 0 0 0 0 0 0 0 0 0 0 0 0 0 0 0 0 0 0 0 0 0 0 0 0 0 0 0 0 0 0 0 0
0 0 0 0 0 0 0 0 0 0 0 0 0 0 0 0 0 0 0 0 0 0 0 0 0 0 0 0 0 0 0 0 0 0 0 0 0 0 0 0 0 0 0 0
0 0 0 0 0 0 0 0 0 0 0 0 0 0 0 0 0 0 0 0 0 0 0 0 0 0 0 0 0 0 0 0 0 0 0 0 0 0 0 0 0 0 0 0
0 0 0 0 0 0 0 0 0 0 0 0 0 0 0 0 0 0 0 0 0 0 0 0 0 0 0 0 0 0 0 0 0 0 0 0 0 0 0 0 0 0 0 0
0 0 0 0 0 0 0 0 0 0 0 0 0 0 0 0 0 0 0 0 0 0 0 0 0 0 0 0 0 0 0 0 0 0 0 0 0 0 0 0 0 0 0 0
0 0 0 0 0 0 0 0 0 0 0 0 0 0 0 0 0 0 0 0 0 0 0 0 0 0 0 0 0 0 0 0 0 0 0 0 0 0 0 0 0 0 0 0
0 0 0 0 0 0 0 0 0 0 0 0 0 0 0 0 0 0 0 0 0 0 0 0 0 0 0 0 0 0 0 0 0 0 0 0 0 0 0 0 0 0 0 0
0 0 0 0 0 0 0 0 0 0 0 0 0 0 0 0 0 0 0 0 0 0 0 0 0 0 0 0 0 0 0 0 0 0 0 0 0 0 0 0 0 0 0 0
0 0 0 0 0 0 0 0 0 0 0 0 0 0 0 0 0 0 0 0 0 0 0 0 0 0 0 0 0 0 0 0 0 0 0 0 0 0 0 0 0 0 0 0
0 0 0 0 0 0 0 0 0 0 0 0 0 0 0 0 0 0 0 0 0 0 0 0 0 0 0 0 0 0 0 0 0 0 0 0 0 0 0 0 0 0 0 0
0 0 0 0 0 0 0 0 0 0 0 0 0 0 0 0 0 0 0 0 0 0 0 0 0 0 0 0 0 0 0 0 0 0 0 0 0 0 0 0 0 0 0 0
0 0 0 0 0 0 0 0 -0 -0 0 0 0 0 0 0 0 0 0 0 0 0 0 0 0 0 0 0 0 0 0 0 0 0 0 0 0 0 0 0 0 0 0 0
Wind_Speed
3 3 2 3 3 4 5 7 7 7 7 6 6 5 4 4 4 4 3 2 0 1 3 3 3 3 3 4 5 4 4 5 6 6 6 6 6 7 7 6 7 7 7 7
4 2 2 3 4 6 5 6 9 8 4 4 3 4 4 4 5 3 2 1 1 2 3 3 3 3 4 4 5 5 5 6 6 6 6 7 7 7 7 7 7 7 7 7
3 4 3 2 1 4 4 4 8 6 5 4 4 5 5 5 4 3 2 1 2 2 3 3 4 3 4 5 5 5 6 6 6 6 7 7 8 7 7 7 7 7 8 7
0 4 2 5 1 9 8 4 5 6 5 5 5 5 5 5 5 3 2 1 2 2 3 4 3 3 4 4 5 5 6 7 7 7 8 8 8 8 8 7 7 7 8 8
3 1 1 2 2 6 7 2 3 6 5 4 5 4 0 2 4 4 2 2 3 3 3 3 4 4 4 5 5 6 7 7 8 8 8 9 9 9 8 7 7 7 7 8
3 2 4 7 4 5 10 1 3 6 6 5 5 2 4 4 3 2 2 2 2 2 2 4 4 4 4 5 6 7 8 8 8 8 8 9 9 9 7 6 7 7 8 7
3 2 4 5 3 6 4 7 5 6 7 6 5 6 5 4 3 2 1 2 2 2 3 4 4 3 4 6 6 7 8 8 8 8 8 8 7 6 7 7 7 7 8 7
4 3 7 6 4 7 8 6 6 7 7 6 5 5 5 4 3 1 1 2 2 2 4 5 4 3 5 6 7 7 7 8 9 9 8 8 7 7 7 6 6 7 6 7
8 8 8 6 8 8 8 8 7 7 7 8 6 5 5 3 2 2 2 2 2 3 4 5 4 3 5 6 6 7 8 9 9 9 8 7 7 7 7 5 5 5 5 5
2 4 4 5 5 6 7 8 8 8 8 7 6 6 4 3 2 2 2 3 2 3 4 5 5 4 5 6 6 6 8 9 8 8 9 8 6 5 5 5 5 5 5 5
1 2 2 2 5 8 7 7 8 7 7 8 7 5 5 4 3 3 3 3 2 2 4 5 5 5 5 5 5 6 8 8 8 7 8 8 7 6 6 6 6 6 5 4
6 8 7 8 8 8 9 9 9 8 6 6 7 7 5 4 4 3 3 2 2 3 4 4 4 5 5 5 5 6 7 8 7 7 7 6 7 8 8 8 10 10 9 7
7 6 6 7 8 8 9 10 9 9 9 7 6 6 6 5 4 3 2 2 3 4 4 3 4 5 5 5 6 6 7 8 7 6 7 7 7 6 8 8 8 8 8 7
5 6 5 6 8 8 8 9 8 8 7 8 7 6 5 4 3 3 3 4 3 3 2 3 3 4 5 6 6 7 7 9 8 6 6 6 6 6 6 6 6 6 5 6
6 6 8 7 7 7 7 8 8 7 7 6 6 6 6 5 4 4 4 3 2 1 2 3 3 5 6 6 6 7 7 6 6 6 6 6 6 6 5 5 4 5 4 4
5 4 6 7 9 8 8 8 9 8 8 7 7 7 7 6 5 4 3 3 2 2 3 2 3 5 6 5 6 6 6 11 10 7 6 6 5 5 5 5 5 4 4 4
6 4 5 6 7 7 8 9 9 9 8 8 8 7 6 5 3 3 3 4 3 3 2 2 3 5 5 5 5 5 5 8 12 8 6 6 5 5 5 4 5 5 4 4
7 7 7 9 8 7 7 7 7 7 7 8 8 7 6 6 5 5 5 3 1 1 2 3 3 3 4 4 4 4 5 5 6 6 6 5 5 5 5 4 5 5 5 4
4 3 2 4 6 6 6 6 7 7 7 8 8 7 7 7 6 5 4 3 3 3 4 3 3 2 3 5 6 4 5 5 6 5 5 7 6 5 5 5 5 5 5 4
10 9 7 4 2 2 3 4 5 5 6 7 7 6 6 6 6 5 4 4 4 4 4 2 1 1 3 5 7 4 5 5 5 5 5 5 5 5 5 5 5 5 5 5
12 12 11 9 6 3 1 2 4 5 6 7 7 7 7 6 6 5 4 3 4 3 2 2 1 1 2 4 6 4 4 4 4 4 5 5 5 5 5 5 5 5 5 5
9 8 8 8 7 6 5 2 3 4 5 6 6 6 6 6 5 4 4 4 5 5 3 2 1 2 3 4 3 3 3 4 4 4 4 4 4 5 5 6 5 5 5 5
5 5 6 6 6 6 5 4 4 4 6 7 8 8 8 7 5 5 4 3 4 6 4 2 2 1 3 2 2 3 3 3 3 4 4 4 4 4 4 6 5 5 5 5
6 7 7 6 6 5 6 7 6 5 6 6 7 8 7 5 4 4 4 7 8 6 4 3 3 1 1 0 1 2 2 3 3 3 4 4 4 4 4 5 5 5 5 6
7 7 7 7 7 6 7 7 6 6 5 4 5 5 5 5 5 5 5 7 8 7 3 4 3 1 1 0 1 1 2 2 3 3 3 4 4 4 4 4 4 5 5 5
7 7 7 6 6 5 4 3 3 3 3 3 4 3 3 3 5 6 6 6 7 7 5 3 2 1 1 1 1 1 2 3 3 3 4 3 4 4 4 4 6 5 5 5
7 6 4 5 5 4 3 2 2 2 2 2 3 3 3 4 5 6 6 5 5 4 4 3 2 2 2 1 1 1 2 2 3 3 3 3 3 3 4 5 4 4 5 5
Wind_Direction
252 241 155 137 119 106 115 148 144 166 162 192 193 186 175 147 124 111 108 108 135 261 277 291 301 304 302 300 301 301 301 299 291 287 286 286 287 286 283 279 281 272 269 267
339 339 53 79 94 97 96 109 124 133 164 198 170 132 121 126 128 129 152 195 258 287 300 302 297 293 299 299 300 300 299 295 293 293 293 291 289 286 285 282 278 274 269 265
303 315 52 11 178 111 92 122 143 156 183 169 147 149 159 160 154 162 186 227 279 293 289 284 280 281 288 292 300 307 302 299 301 297 295 292 296 298 289 284 278 277 272 266
338 28 70 250 136 112 99 75 119 134 159 165 162 170 176 172 162 170 195 239 278 282 281 277 277 285 290 303 309 307 305 302 302 300 298 296 294 290 286 281 278 276 274 269
112 94 265 257 193 144 124 97 141 137 142 135 129 102 357 197 173 179 195 212 234 246 256 279 290 295 305 311 310 307 304 302 302 302 302 302 298 292 287 284 284 279 276 272
140 144 216 236 231 133 101 117 219 148 146 151 127 93 253 216 186 178 191 220 244 269 289 301 292 298 311 309 311 306 301 300 302 301 301 299 294 290 288 285 283 286 286 279
178 189 245 239 184 110 128 222 203 161 158 157 167 196 208 191 190 187 201 243 265 300 303 291 291 307 312 308 304 298 301 304 305 303 300 294 291 289 292 292 293 294 293 289
149 169 239 223 143 161 197 188 164 158 162 157 166 164 163 175 184 194 251 284 298 306 301 298 303 312 308 301 295 301 307 309 308 307 305 309 301 297 296 295 299 301 300 301
179 206 221 193 182 187 157 157 164 161 164 151 150 164 175 184 196 225 261 283 285 290 303 307 305 303 301 295 303 312 315 313 311 310 305 302 299 299 301 298 296 296 299 299
178 238 207 181 162 161 161 159 162 156 156 151 156 170 175 183 206 234 263 274 283 302 311 305 301 301 288 294 308 315 314 312 311 311 310 308 303 295 291 291 293 294 296 296
231 236 118 186 177 168 159 145 144 150 154 157 156 167 172 183 206 225 247 261 266 279 288 291 296 301 299 304 314 316 312 310 311 307 305 307 305 296 289 274 262 268 277 278
213 208 176 203 198 166 154 160 161 155 157 163 161 167 168 183 204 216 239 253 269 282 287 292 297 303 306 308 312 314 315 314 310 310 308 307 309 311 296 280 281 273 260 258
198 191 174 174 172 163 161 167 167 163 166 169 168 164 165 183 203 210 227 242 254 268 279 289 299 306 308 310 314 313 310 310 308 308 308 310 311 311 314 314 303 295 284 271
161 128 127 159 174 171 163 164 161 162 166 166 167 165 166 175 191 206 229 236 241 263 281 291 303 306 306 312 316 314 311 311 312 304 305 306 307 306 302 307 316 315 302 285
177 163 173 176 164 164 157 150 152 167 171 172 167 167 169 176 196 214 223 222 236 280 288 296 305 304 307 313 315 314 314 310 310 307 306 305 306 308 308 311 310 307 310 312
191 160 147 155 167 171 165 165 171 183 181 177 178 181 182 182 188 198 210 207 218 262 270 275 287 295 306 315 318 316 313 319 326 316 314 315 316 319 320 321 320 317 312 304
143 160 171 177 181 183 183 182 182 184 182 179 182 178 172 167 173 201 227 228 219 220 225 230 270 295 310 316 319 313 313 319 327 324 317 315 318 322 322 324 324 323 314 305
164 172 172 177 181 185 189 183 177 175 177 182 170 163 168 175 193 212 223 227 209 205 229 240 268 302 317 317 318 312 311 312 316 318 320 322 323 321 323 326 328 328 324 325
62 77 118 168 177 173 177 181 182 180 175 164 163 176 187 192 196 204 204 192 196 226 248 256 293 324 320 320 332 315 315 317 320 323 326 330 336 336 334 334 334 333 333 336
37 35 34 32 59 140 177 181 170 169 174 168 170 180 190 199 197 198 190 195 206 207 216 234 252 302 315 319 332 315 316 321 325 327 331 336 339 338 340 342 342 341 342 344
29 27 24 19 10 358 328 187 168 181 188 182 183 194 201 206 200 188 179 204 224 203 207 200 178 271 309 319 324 318 323 328 332 333 334 333 336 339 343 346 346 347 346 347
15 16 11 6 2 345 325 292 224 202 197 199 202 200 197 205 204 195 194 194 188 183 173 168 199 266 320 331 326 327 332 339 341 336 333 335 339 343 347 348 344 348 350 351
350 350 349 338 323 306 303 292 262 233 221 215 209 204 202 201 192 183 205 202 172 173 162 178 212 274 342 348 333 336 341 345 345 338 332 334 338 340 345 348 348 351 354 356
338 331 322 314 314 313 300 288 274 253 240 233 223 209 195 189 197 197 171 166 171 165 163 189 209 235 4 12 345 344 345 344 342 337 334 337 343 347 350 351 353 356 1 5
321 317 315 317 316 301 286 284 283 275 259 248 242 223 202 184 176 171 156 161 164 158 162 194 208 208 118 93 16 358 354 352 352 347 344 344 350 353 356 356 358 1 6 8
308 303 296 289 284 284 289 296 297 292 272 257 257 236 196 165 151 149 153 159 160 160 162 174 188 177 135 102 53 26 13 2 359 356 351 352 357 3 3 6 10 12 12 14
304 306 308 314 313 309 306 308 308 301 281 258 255 235 188 166 156 156 153 154 159 162 159 159 152 141 130 112 88 51 32 17 5 359 359 1 4 9 10 10 12 15 16 19